Theta_e
309 309 310 310 310 310 311 311 311 311 311 311 311 311 311 311 311 311 311 311 312 311 312 311 311 311 310 310 310 311 311 311 311 311 311 313 313 312 312 313 313 313 313 313 313 313 313 313 314 314 315 314 314 315 314 316 315 318 330 330 323 324 324 320 318 315 317 320 313 311 313 314 315 313 313 314 313 314 313 314 315 315 315 315 315 315 315 315
309 309 310 310 310 310 311 311 311 311 311 311 311 311 311 311 310 311 311 311 311 311 311 311 310 310 310 310 310 311 311 311 311 311 312 314 313 312 312 313 313 314 313 314 313 313 313 314 314 314 315 315 315 315 315 316 314 319 327 325 327 329 319 314 314 311 313 316 312 311 312 313 315 313 313 314 314 313 313 314 313 314 315 315 316 315 315 315
309 310 310 310 310 310 311 311 311 311 311 311 311 311 311 310 311 311 311 311 311 312 311 310 310 310 310 310 310 311 311 311 311 311 313 314 313 312 313 313 313 313 313 314 313 313 314 314 315 315 315 315 315 316 314 315 314 314 320 326 330 322 313 311 312 312 313 313 312 312 312 313 314 313 314 314 313 313 313 315 314 314 315 315 316 315 315 315
309 310 310 310 310 310 311 311 311 311 311 311 310 311 310 310 311 311 311 311 311 311 310 310 310 310 310 310 310 310 311 311 312 311 313 314 313 312 313 313 313 313 313 313 313 313 313 314 315 315 316 316 315 316 314 314 314 312 318 326 320 311 313 314 312 313 313 313 313 312 312 313 313 314 314 313 314 315 314 315 315 315 316 315 315 315 315 315
310 310 310 310 310 310 310 311 311 311 311 310 310 310 309 310 310 311 311 310 311 310 309 310 310 310 310 310 310 310 311 312 313 313 314 315 313 312 313 313 313 313 313 313 313 314 314 315 315 316 316 316 315 317 314 313 314 313 314 315 311 309 314 315 312 314 313 313 313 311 313 314 313 313 313 313 315 316 315 316 316 315 316 315 315 315 315 315
310 310 309 309 309 310 310 310 311 310 310 309 308 308 308 308 309 310 309 309 310 309 309 310 310 310 310 310 310 311 311 312 314 314 314 314 312 312 313 313 313 313 313 313 313 314 315 315 315 316 315 314 314 316 315 312 314 317 314 310 310 311 313 313 312 313 313 313 313 312 313 313 313 313 313 313 315 316 315 316 316 315 316 315 315 315 315 315
310 309 309 309 309 310 310 310 310 309 308 307 307 307 307 308 308 308 308 308 308 309 309 310 310 310 310 310 310 311 311 312 314 314 313 313 312 312 312 313 313 312 313 313 313 314 315 315 316 315 315 314 313 313 314 313 313 319 318 311 312 312 311 313 312 313 313 313 313 312 313 313 313 314 312 313 315 316 315 316 315 316 316 315 315 315 315 316
309 309 309 309 310 309 309 308 307 307 307 306 306 306 307 307 307 307 307 308 308 309 309 309 310 310 310 310 310 311 311 312 313 313 312 312 312 312 312 312 312 313 314 313 313 314 315 316 316 315 314 313 314 313 313 314 314 317 318 312 312 313 312 313 313 313 313 313 313 313 313 313 313 313 311 313 316 316 315 316 315 316 316 316 315 315 315 315
309 309 309 309 309 308 307 306 306 306 306 306 306 306 307 307 307 307 307 308 308 309 309 309 309 310 310 310 310 311 310 311 313 313 312 312 312 312 312 312 313 314 314 314 313 314 315 315 315 316 315 313 314 313 313 315 315 314 315 313 313 313 313 313 313 313 313 313 313 313 313 312 312 312 313 315 316 316 316 315 316 315 315 316 315 315 315 315
308 308 308 308 307 306 306 306 306 306 306 306 307 307 307 307 307 307 308 308 308 309 309 309 310 310 310 310 310 311 311 311 312 313 312 312 312 312 312 312 314 315 315 314 314 314 315 315 316 316 315 315 314 313 313 316 315 313 313 313 314 314 314 314 314 313 313 313 313 314 314 312 312 312 315 316 316 316 316 315 315 315 315 315 315 315 315 315
307 306 306 306 306 306 307 307 307 307 307 307 307 307 307 307 307 307 308 308 308 309 309 309 309 310 310 311 310 311 313 313 312 313 312 312 312 312 312 312 314 315 315 315 314 315 315 315 316 315 316 315 314 313 312 313 314 313 314 315 314 314 314 314 314 314 314 314 313 313 313 312 311 313 316 315 316 316 316 316 315 315 315 314 315 315 315 315
306 306 306 306 307 307 307 308 308 308 308 308 307 307 308 308 308 308 308 308 308 309 309 309 309 310 310 310 310 311 315 315 314 313 312 313 312 312 313 313 314 315 316 316 315 315 315 316 316 316 316 315 315 314 313 314 313 314 315 317 318 319 318 313 312 312 313 314 313 312 314 315 314 314 316 315 314 316 315 316 315 315 316 315 315 315 315 315
306 307 307 307 308 308 309 309 309 309 309 309 309 309 308 309 308 308 309 308 309 309 309 309 309 310 310 310 311 311 313 314 315 314 313 313 312 312 313 313 314 315 316 316 316 316 316 317 316 316 315 314 315 313 314 312 312 316 313 316 322 323 321 312 310 312 312 313 312 312 318 324 321 314 314 315 314 315 314 315 315 316 316 315 315 315 315 315
307 307 308 308 309 309 309 310 310 310 309 309 309 309 309 309 309 309 309 309 310 309 310 310 310 310 310 311 312 312 311 311 313 315 314 312 312 313 312 313 314 315 317 317 317 317 317 318 317 317 314 315 314 313 319 316 315 319 312 317 324 319 322 317 308 311 314 313 312 313 318 323 323 316 314 315 314 314 314 315 315 315 316 315 315 315 315 315
308 308 309 309 310 310 310 310 310 309 308 308 308 308 308 308 308 309 309 309 310 310 310 310 310 310 310 310 311 311 311 311 312 314 314 313 312 313 313 314 314 315 317 317 317 317 317 317 316 316 313 315 315 316 325 323 322 323 313 322 324 315 327 324 308 309 314 313 310 313 318 319 319 316 314 314 314 314 313 315 315 315 316 315 315 315 315 316
309 309 309 310 310 310 310 309 309 308 307 307 307 307 307 307 308 307 308 308 308 309 309 309 310 310 310 310 311 311 311 311 311 312 314 314 312 312 313 314 314 315 316 317 318 317 317 317 316 315 313 314 319 328 333 325 326 326 316 321 324 318 325 322 310 307 309 311 311 313 317 320 318 314 313 313 313 313 313 315 315 315 316 316 315 316 316 316
309 309 309 309 309 309 309 309 308 307 307 307 306 306 307 307 307 307 307 307 307 308 308 309 310 309 310 310 311 312 312 311 311 311 313 314 313 312 313 314 314 315 316 317 317 317 317 316 314 314 315 315 319 328 329 320 323 326 318 319 324 321 320 320 318 310 306 311 313 313 314 316 316 312 313 314 312 312 312 314 316 316 316 316 316 316 316 316
311 310 309 309 309 308 308 308 308 307 307 307 307 307 307 307 307 307 307 307 308 307 308 309 310 311 311 310 312 313 313 312 312 311 312 314 314 313 313 315 315 315 316 316 316 316 316 314 315 318 319 318 318 322 323 324 328 328 324 323 322 319 317 320 323 312 308 313 315 315 315 314 314 312 312 313 311 311 312 314 315 315 315 316 316 316 317 317
316 314 312 310 309 309 308 308 307 307 307 306 306 307 306 307 306 307 307 307 308 309 310 310 310 313 313 310 311 313 314 313 312 311 311 313 314 313 315 315 315 315 315 317 317 315 314 315 317 320 321 321 320 319 321 326 328 328 332 333 327 322 319 321 323 314 309 314 316 316 316 315 314 313 312 312 312 310 311 313 313 314 315 315 316 316 317 317
320 318 317 314 312 310 309 308 307 307 307 306 307 306 307 307 306 307 307 306 308 309 312 312 310 311 313 311 310 312 313 313 313 313 312 314 314 314 315 314 315 316 315 319 319 312 314 319 321 323 322 321 320 318 319 321 322 323 327 329 324 322 321 321 321 313 306 313 321 317 315 315 314 313 311 311 311 309 309 310 311 314 315 316 317 317 318 318
321 320 320 318 316 314 312 310 308 307 307 307 306 306 306 307 307 308 308 308 308 308 309 311 310 310 311 313 312 311 313 313 313 314 313 314 315 315 315 315 316 318 314 313 315 313 316 321 323 322 318 317 319 318 318 319 320 323 323 321 321 322 322 319 317 313 308 312 321 318 315 315 314 313 311 309 309 309 309 310 311 314 315 316 316 317 318 318
322 321 321 321 320 318 316 313 310 308 308 307 307 306 306 306 308 310 310 310 310 309 309 309 309 310 310 311 312 312 313 313 314 314 314 314 316 315 314 315 318 320 314 311 315 318 319 322 322 316 310 312 317 316 318 319 320 325 322 319 321 321 320 317 314 313 311 312 320 321 316 315 313 312 311 309 309 310 311 312 312 314 314 315 316 317 317 317
324 323 321 321 321 320 319 317 314 310 308 308 307 306 306 307 308 310 310 310 309 309 309 309 309 309 309 309 310 312 312 314 314 314 315 314 315 315 313 316 320 321 317 316 320 321 321 324 319 309 308 315 318 314 317 318 319 323 322 320 322 320 319 319 316 314 312 311 317 320 316 313 313 312 312 311 310 311 312 313 313 313 313 315 317 317 316 316
324 323 323 322 321 321 321 320 318 314 308 307 308 307 307 308 308 308 309 308 309 310 308 309 309 308 309 309 309 311 312 313 313 313 315 314 314 314 313 315 319 320 317 317 319 319 320 318 310 307 311 319 320 315 316 318 318 321 320 320 322 321 319 318 318 316 316 314 312 315 317 319 318 316 316 313 310 311 312 312 312 313 315 316 317 316 316 317
323 323 324 323 323 322 321 320 320 317 311 307 308 307 307 308 308 308 309 309 310 311 309 309 310 309 309 309 310 311 312 312 313 313 314 314 314 314 313 313 315 319 318 316 315 317 319 312 309 313 314 317 321 319 319 320 320 323 322 319 319 321 320 317 318 318 321 322 315 313 320 329 329 325 322 320 319 318 314 311 312 315 317 317 317 318 318 318
323 324 324 323 323 322 321 320 319 318 313 308 308 307 307 308 309 308 310 313 312 311 311 310 310 311 310 310 310 311 312 313 312 313 314 314 314 313 314 313 312 315 317 316 314 316 316 310 312 321 318 316 318 317 319 318 319 322 320 317 315 315 317 317 317 318 323 326 316 312 318 325 327 325 322 323 324 321 315 312 312 314 316 317 317 318 318 318
322 323 323 323 322 322 321 320 320 318 314 309 308 308 307 308 309 308 310 316 315 312 313 312 311 311 310 310 311 310 313 314 312 313 314 314 314 313 316 315 312 313 311 313 315 315 314 312 314 320 320 318 317 318 319 315 319 324 316 315 316 315 318 319 317 318 322 322 316 315 320 321 321 321 321 323 323 319 317 317 314 311 314 316 317 317 318 318
322 322 322 322 322 322 322 321 321 320 318 314 309 308 308 309 310 310 314 318 315 312 313 312 311 311 311 311 311 310 311 312 313 315 314 314 314 313 315 314 315 317 311 312 318 313 313 318 317 316 318 317 318 322 320 314 319 321 312 313 317 317 320 321 321 321 320 320 318 317 319 320 323 324 322 322 323 321 321 323 318 313 313 315 316 317 317 318
320 321 321 322 321 321 321 322 322 321 320 318 312 308 308 310 311 312 317 319 314 311 312 312 312 311 311 311 311 310 310 311 313 315 314 313 314 313 314 312 312 315 310 311 318 313 311 315 314 315 318 318 319 318 313 315 318 313 307 312 315 316 319 320 323 324 323 323 320 319 319 319 323 325 322 321 322 323 321 321 317 313 313 315 317 318 317 318
317 319 320 321 320 320 320 321 321 321 321 319 314 309 309 312 312 313 317 317 313 312 310 311 312 311 312 312 311 310 310 312 313 314 313 313 314 312 313 311 310 316 315 313 317 314 310 310 309 313 315 314 315 311 307 311 312 308 313 320 319 320 321 321 323 321 324 326 319 318 321 319 320 324 324 321 323 326 323 322 321 315 314 316 318 318 317 318
314 317 319 320 320 320 320 320 321 321 321 320 314 309 310 313 315 316 317 314 312 314 311 311 312 311 313 313 313 312 311 311 312 314 314 314 314 313 313 312 313 321 321 316 318 314 310 313 313 312 311 310 313 313 308 307 307 312 326 327 320 323 322 321 323 321 324 325 318 315 317 316 319 324 324 321 320 322 322 325 328 321 317 317 318 318 317 317
311 314 316 318 319 320 320 320 320 320 320 318 312 309 312 314 316 318 317 315 316 316 313 314 313 312 313 313 314 314 313 314 312 313 316 315 315 314 314 315 316 319 319 316 318 315 314 316 314 311 310 311 318 320 313 311 311 317 326 323 319 323 321 320 325 322 323 322 314 312 315 315 317 320 320 319 319 319 314 316 320 317 316 318 319 318 317 317
310 310 313 315 317 319 319 319 319 319 319 317 311 310 314 316 317 318 317 318 318 314 313 315 315 314 314 314 314 312 313 315 313 313 315 315 316 315 315 317 315 316 318 316 315 316 317 316 312 313 313 312 317 320 318 317 316 318 322 322 321 322 321 323 324 319 319 319 313 309 314 318 319 319 319 317 317 317 312 311 313 313 315 317 317 318 317 317
308 309 311 312 315 317 318 318 318 318 319 317 312 311 315 317 318 318 318 317 316 314 314 315 314 314 313 314 315 313 312 314 314 314 315 315 317 317 318 316 313 317 323 318 315 316 318 317 315 316 315 314 315 315 319 320 316 316 319 320 321 324 323 324 326 324 320 321 317 311 314 324 325 322 319 313 311 313 312 313 314 313 314 316 316 316 316 316
307 308 309 311 313 315 317 317 317 318 317 314 311 312 314 316 317 318 319 317 317 318 316 314 314 315 315 315 315 313 312 313 313 314 316 316 317 317 317 317 313 316 320 316 316 316 315 318 318 313 311 313 315 313 316 318 316 316 318 318 319 322 322 319 318 320 320 321 322 317 318 323 323 321 317 312 313 313 311 311 312 313 316 316 315 316 315 316
306 307 308 310 311 313 315 316 317 317 316 312 311 312 313 314 316 317 317 315 316 318 315 315 317 317 316 315 315 312 311 313 313 314 316 315 316 316 316 316 313 313 314 313 317 318 315 318 315 310 310 312 312 312 312 314 316 316 316 319 317 316 323 322 313 310 312 316 320 320 320 319 319 320 317 317 320 318 313 311 310 313 316 315 315 316 316 317
306 306 307 309 310 311 313 315 317 316 313 311 311 313 312 313 314 315 315 313 314 315 315 316 317 317 316 315 316 314 313 314 314 315 317 315 316 317 315 316 314 312 312 311 316 319 318 319 314 311 314 311 307 310 310 308 313 318 319 318 314 313 320 325 319 317 317 319 322 322 320 317 318 319 318 317 318 318 318 316 311 312 314 312 314 317 317 317
305 306 306 307 309 310 312 315 316 314 312 310 311 313 312 312 312 312 312 312 312 314 315 317 316 316 317 316 316 315 313 315 315 315 317 315 316 317 315 316 314 312 312 310 313 317 316 317 316 310 313 312 308 312 314 310 309 315 318 315 316 319 321 320 320 323 323 322 325 326 320 317 318 319 319 319 321 324 322 319 316 314 311 310 315 318 317 316
305 305 306 307 307 308 311 314 315 314 313 311 311 313 312 312 311 311 312 311 313 314 314 316 315 315 317 317 316 315 313 315 315 314 316 315 315 315 313 315 314 311 310 310 314 317 315 315 318 310 309 312 312 314 318 316 311 311 313 312 315 321 322 320 320 321 322 322 324 327 325 320 318 323 323 320 323 326 324 324 326 318 311 313 318 319 318 317
304 305 307 308 307 308 310 313 313 312 313 312 312 312 312 312 311 311 312 311 312 314 313 315 316 315 317 315 315 317 315 314 314 314 316 315 315 315 312 314 316 313 310 310 313 316 315 313 316 313 310 313 317 316 316 317 315 314 316 315 315 317 318 320 319 317 321 324 324 325 325 318 317 325 326 320 321 322 321 325 326 317 313 317 320 318 318 317
305 306 307 308 308 309 311 313 312 312 313 313 313 312 311 311 311 311 312 311 311 312 312 314 315 315 316 314 314 316 315 314 314 314 315 314 314 316 314 312 315 314 311 311 313 315 315 315 317 317 314 315 318 316 312 314 316 315 316 316 316 316 317 318 317 316 318 323 323 323 323 317 318 326 325 322 325 321 316 316 315 315 317 319 318 317 318 318
305 305 306 308 309 311 312 312 311 311 313 313 313 312 312 311 311 311 311 310 311 312 311 314 315 315 316 315 315 315 315 315 314 314 316 315 313 315 315 311 311 313 313 314 314 313 314 317 319 319 318 317 316 310 306 310 316 316 315 316 315 315 317 318 319 319 318 319 317 318 322 318 321 330 326 321 321 315 310 310 309 313 318 317 317 316 317 318
305 305 307 308 310 311 312 312 312 312 313 313 312 312 312 311 311 311 311 311 311 312 312 314 314 314 315 315 315 315 316 316 315 314 316 316 314 313 313 311 311 312 313 316 317 314 313 317 318 317 319 319 315 311 306 307 313 315 314 315 316 316 318 320 321 319 318 320 318 318 321 318 320 328 318 308 309 307 307 311 312 314 316 317 316 316 316 317
305 305 306 306 309 312 312 312 312 312 312 312 312 312 312 312 312 312 312 311 312 312 313 313 313 312 313 316 316 315 315 315 315 315 315 317 316 312 311 311 312 312 313 315 317 314 314 319 318 316 319 319 317 316 314 311 312 315 317 316 315 317 318 318 319 317 318 321 321 320 321 318 320 325 314 308 313 312 308 310 312 314 316 317 316 316 316 316
304 305 305 304 306 310 310 311 312 312 312 312 312 312 312 312 311 312 312 311 311 311 312 313 313 312 313 315 315 315 315 315 316 316 315 317 316 311 309 312 312 312 312 313 313 312 315 318 316 315 317 318 317 318 318 316 314 315 319 318 314 316 317 316 317 318 318 320 320 319 319 317 318 321 318 317 321 318 313 311 311 313 316 317 317 317 316 315
303 304 305 304 304 305 307 308 309 310 312 312 312 312 312 313 312 311 312 312 311 311 312 313 313 312 314 315 315 315 315 314 316 317 315 317 318 312 309 311 311 311 312 312 311 314 319 319 315 316 317 316 317 316 318 320 317 316 318 317 314 314 315 316 317 318 318 318 318 318 318 318 318 319 322 322 321 322 321 314 311 314 316 316 317 317 316 314
303 304 305 306 305 305 305 306 307 309 311 311 312 311 312 312 312 312 312 312 312 311 312 313 312 313 315 315 315 316 316 315 316 316 316 316 317 314 310 309 310 311 312 312 311 315 321 319 316 317 317 316 317 317 317 320 320 318 317 316 315 314 314 316 317 317 318 318 318 318 317 318 318 317 321 324 323 326 322 312 310 315 317 317 317 317 316 314
302 303 304 305 306 306 306 306 306 307 309 309 311 311 312 312 312 312 312 312 312 312 313 313 313 313 314 315 315 315 315 316 316 315 316 316 316 316 314 311 310 310 311 312 312 315 319 318 317 318 317 316 317 316 318 319 319 318 317 316 315 314 314 316 316 316 317 318 318 318 317 318 317 315 317 319 319 319 317 314 314 315 315 316 316 316 316 314
301 302 303 304 304 305 306 306 305 306 307 308 308 309 310 312 312 312 312 312 312 312 313 313 313 313 313 314 315 315 315 316 316 315 315 316 316 317 316 315 313 310 310 313 312 312 315 317 317 318 317 317 317 317 318 318 317 317 316 315 315 314 314 315 316 316 316 317 317 317 318 318 316 316 316 316 315 314 314 315 315 314 314 316 317 316 316 315
300 301 302 303 303 303 304 304 304 306 306 307 308 308 308 309 310 311 312 312 312 312 312 313 313 313 313 313 314 314 314 315 316 316 315 316 316 316 316 317 317 312 310 313 314 311 312 316 317 317 317 317 316 317 317 316 316 316 316 315 314 314 314 314 315 316 316 316 317 317 318 317 315 315 315 314 314 313 313 314 313 314 316 317 316 317 317 316
300 300 301 302 302 303 303 303 303 304 305 306 307 308 308 308 309 310 311 311 311 312 312 313 313 313 313 313 313 313 313 314 314 314 315 315 315 315 315 314 316 316 313 313 314 314 312 314 316 317 317 317 317 318 317 315 314 315 316 317 315 314 314 314 314 315 316 316 317 316 317 317 315 317 316 314 313 312 311 311 313 315 317 316 316 317 317 317
299 300 300 301 301 302 303 304 304 304 304 304 305 306 307 308 308 309 310 310 310 311 311 312 312 313 313 314 313 313 313 313 313 313 313 314 313 314 314 312 313 316 316 313 314 315 314 314 315 316 317 318 318 318 317 316 316 316 316 316 315 314 314 314 314 314 315 315 316 317 317 315 316 318 318 317 318 316 312 311 314 315 316 316 317 317 317 317
Wind_Speed
17 16 15 14 13 13 12 11 10 10 9 9 9 9 9 9 10 10 10 11 11 11 11 10 9 8 6 5 4 4 3 3 3 3 3 3 2 3 3 3 3 3 2 1 0 0 0 1 2 3 3 4 6 7 8 6 6 4 3 4 2 3 4 6 8 7 4 2 6 11 13 9 4 8 9 5 6 7 8 13 13 13 15 13 10 8 7 8
17 16 15 14 13 12 12 11 10 10 9 9 9 9 9 9 10 10 10 11 11 11 10 10 9 8 6 5 4 4 4 3 4 4 3 3 3 4 5 5 5 4 4 2 1 0 1 2 2 3 3 5 5 5 6 4 4 3 3 3 3 5 4 5 9 9 3 2 8 12 11 10 5 9 11 4 5 6 7 11 14 14 16 16 15 12 10 10
18 17 15 14 13 12 12 11 10 10 9 9 8 8 9 9 10 10 11 11 11 11 10 10 9 7 6 5 5 4 4 4 4 4 4 4 5 6 6 6 6 6 5 3 2 2 3 3 3 3 5 6 6 5 5 4 3 2 4 2 4 7 3 4 10 10 4 2 8 11 9 8 6 10 11 5 4 5 8 11 14 17 18 16 16 14 13 12
18 17 16 14 13 13 12 11 10 9 9 9 8 8 9 9 9 10 11 11 11 10 10 10 9 7 6 5 5 4 3 3 4 5 5 5 7 8 7 6 5 5 5 5 4 4 4 4 4 5 6 6 5 5 4 5 2 1 4 3 4 5 2 4 9 8 5 2 7 11 8 6 7 10 10 7 3 4 13 17 16 18 17 14 15 15 14 14
18 16 15 14 13 13 12 11 10 9 9 9 9 9 9 9 9 10 10 10 10 10 10 10 9 7 6 5 5 5 4 2 4 6 6 7 8 10 7 5 3 3 4 5 4 5 5 5 5 6 5 4 4 4 3 5 5 3 1 2 3 5 2 2 5 6 8 5 7 11 8 6 8 9 11 11 6 8 14 15 15 16 16 14 14 13 14 15
17 15 15 14 14 13 12 11 10 10 10 10 9 9 9 9 9 10 10 10 10 10 10 10 8 6 5 5 4 6 4 2 4 7 6 8 10 10 8 5 2 1 2 3 3 4 5 5 6 5 4 3 3 4 3 3 4 3 1 1 4 4 2 2 2 4 7 7 9 11 8 8 8 6 10 14 16 17 14 11 10 11 13 15 15 14 14 14
17 16 15 14 13 12 12 11 10 11 11 10 10 10 10 10 9 9 9 9 9 10 10 9 7 6 5 4 4 5 3 3 5 6 6 9 10 9 7 5 3 3 2 0 2 4 5 5 6 7 6 4 2 3 4 4 3 4 1 1 4 1 2 1 1 3 6 5 7 8 7 7 7 6 6 15 24 23 19 16 13 11 10 12 15 16 16 15
17 16 15 14 13 12 11 10 10 10 10 11 11 11 11 10 10 10 9 9 9 9 9 8 7 5 4 4 3 4 2 3 4 6 6 9 9 7 5 3 2 3 2 1 2 4 5 4 7 7 4 3 3 2 3 4 5 4 2 3 4 1 1 1 1 3 4 3 5 6 6 4 6 6 7 19 25 21 20 21 19 18 16 15 16 16 16 17
15 15 14 14 13 13 11 10 10 10 10 10 10 11 11 10 10 10 10 10 10 9 8 7 6 5 4 3 3 2 2 3 4 6 6 8 8 6 4 2 1 2 1 2 3 4 4 5 6 4 3 4 5 3 3 3 2 2 4 4 3 2 2 2 2 4 4 2 4 5 4 2 4 4 10 22 24 21 22 22 21 21 21 20 19 18 18 18
14 14 14 13 13 13 13 12 11 10 10 9 9 10 10 10 10 10 10 10 10 9 8 7 6 5 4 3 2 2 3 4 5 6 7 7 7 5 4 1 0 1 3 4 4 4 4 4 5 5 6 7 6 4 4 3 3 3 5 5 3 3 2 1 3 3 3 3 3 5 3 3 2 0 8 16 13 15 19 21 22 21 21 21 20 19 19 19
14 14 13 13 13 13 13 12 11 11 10 10 10 9 9 9 9 9 9 9 9 8 7 6 5 4 3 3 3 3 3 3 5 8 8 7 7 5 4 2 1 1 3 5 6 6 5 5 6 7 4 5 5 5 5 5 5 4 4 3 3 5 2 2 2 3 3 2 3 4 2 4 0 2 14 19 12 12 14 16 19 20 20 19 19 20 20 20
13 13 13 13 13 13 12 12 11 11 11 10 10 9 9 9 9 9 8 8 8 7 6 5 4 4 4 4 5 4 2 2 4 8 9 7 7 6 5 3 1 2 3 5 7 7 6 6 6 4 4 7 5 4 5 6 5 5 5 2 4 8 3 3 2 3 3 1 1 2 2 5 3 10 22 20 15 16 16 17 18 18 19 19 19 19 20 20
14 13 12 12 12 12 12 12 11 10 10 10 9 9 9 9 8 8 8 7 7 6 6 5 4 4 4 3 4 5 5 4 3 7 10 9 8 7 6 4 2 3 3 4 6 7 6 5 4 6 9 8 4 4 6 5 4 3 5 2 3 7 4 2 1 2 3 2 3 4 2 6 7 18 24 16 15 16 17 19 19 19 19 19 20 20 20 20
14 13 12 11 11 11 10 11 11 10 10 9 9 8 8 8 8 8 8 7 6 6 5 5 4 4 4 3 3 5 7 7 6 7 9 11 9 8 7 4 3 4 4 3 5 6 5 5 5 8 9 7 7 8 5 5 4 1 2 2 2 2 4 4 1 4 4 4 6 5 3 6 8 15 15 14 18 17 19 20 18 19 19 19 20 20 21 20
12 12 12 11 11 10 10 10 10 10 10 9 9 8 7 7 7 7 7 6 6 5 5 5 4 4 3 4 5 7 8 8 9 8 9 11 10 9 8 5 4 4 4 4 4 5 5 4 5 7 8 8 10 7 3 4 4 3 1 2 3 1 5 7 1 5 3 2 6 5 3 6 9 13 9 10 15 15 20 21 19 20 19 19 20 20 21 21
9 10 11 11 11 10 10 10 9 9 9 8 8 7 7 6 6 6 6 5 5 5 5 4 4 4 3 3 5 7 8 10 11 11 11 11 11 9 8 6 4 4 4 4 4 4 3 3 6 8 7 7 6 4 4 3 4 4 1 2 1 1 3 5 2 2 1 2 4 3 3 4 5 6 3 3 8 12 17 19 19 20 19 19 20 20 22 22
8 9 10 10 11 11 10 10 10 9 8 7 7 6 6 5 5 5 5 5 5 5 4 3 4 4 3 4 6 7 9 11 11 12 12 11 11 10 9 7 5 5 5 5 4 4 3 3 6 5 4 3 3 4 4 2 3 3 2 0 3 2 2 3 3 2 1 2 3 3 4 8 8 8 9 7 8 10 14 19 19 19 20 20 20 22 23 23
7 8 9 10 10 11 11 10 10 10 9 8 7 5 5 4 4 4 5 5 6 5 4 5 5 2 5 8 7 6 7 9 10 11 12 12 12 11 10 7 5 6 5 5 3 3 3 4 5 2 3 3 2 5 3 4 3 3 2 1 2 2 2 4 3 2 1 1 3 3 5 12 13 14 22 21 16 15 19 22 24 24 25 25 25 27 27 28
6 7 8 8 9 9 10 10 10 10 9 8 7 6 5 3 3 3 5 6 8 6 2 8 10 4 2 8 10 7 5 5 7 10 12 13 13 12 10 7 6 6 6 4 2 3 4 4 5 2 1 2 5 6 7 7 6 6 6 4 3 3 4 5 5 4 2 1 5 7 8 13 13 12 19 22 17 17 22 25 28 30 30 31 31 32 32 33
5 6 7 7 8 8 8 9 10 10 8 8 7 6 4 4 3 1 6 9 10 8 2 7 13 7 3 4 8 9 6 6 8 10 13 14 14 13 10 8 7 5 3 3 2 2 4 3 2 5 6 7 8 7 5 5 6 7 5 4 3 3 5 5 3 5 1 2 6 7 7 12 14 11 16 21 16 15 21 25 29 32 33 34 34 35 36 36
4 5 6 6 7 8 8 9 9 9 9 8 8 6 5 5 3 0 4 6 9 11 8 6 10 10 5 2 5 8 7 7 8 11 13 14 15 12 9 8 6 3 0 3 4 2 4 4 7 9 7 7 6 6 7 6 6 5 5 2 1 3 6 5 2 4 1 3 5 4 5 12 14 12 17 19 11 15 24 26 30 34 35 36 36 38 39 38
5 6 6 7 7 7 8 8 7 8 9 9 9 7 5 6 5 3 1 2 6 9 12 12 12 13 13 10 8 8 8 7 8 12 14 16 16 11 9 7 5 3 2 3 5 3 2 4 10 7 9 8 5 6 7 6 5 4 4 2 2 3 4 5 3 4 0 4 4 4 5 11 13 12 17 21 17 21 30 30 33 35 34 36 38 40 41 39
8 7 7 8 8 8 8 7 6 6 8 9 9 9 7 6 5 4 3 3 6 9 11 14 15 17 18 16 14 12 11 7 7 14 16 18 17 12 11 9 4 4 3 4 6 4 2 6 8 8 12 9 6 5 7 6 3 2 4 3 2 2 2 3 4 4 1 2 3 4 6 9 10 9 15 23 21 25 33 34 36 37 36 40 42 42 41 41
12 9 7 8 9 11 10 8 6 4 7 9 9 10 10 8 6 5 3 2 5 7 11 13 14 17 19 18 16 14 14 11 8 13 18 20 18 12 10 9 5 4 4 6 7 5 5 6 1 7 9 8 6 5 7 5 2 3 4 6 4 4 5 5 3 4 2 3 2 2 7 7 6 8 11 12 9 17 27 28 31 35 36 39 41 41 40 41
15 12 9 9 10 13 12 10 7 5 6 7 8 11 11 9 6 3 1 1 4 5 7 12 13 15 19 17 16 13 11 12 12 13 18 22 21 12 7 8 6 4 5 5 5 4 7 5 5 7 4 6 7 4 5 7 3 4 5 9 9 7 6 3 3 5 4 4 2 1 4 6 4 5 9 5 4 11 17 16 23 29 30 32 36 37 38 37
18 15 11 11 12 14 13 10 7 5 4 5 10 13 13 10 6 4 3 4 4 4 3 8 9 9 14 15 16 13 5 8 13 15 18 22 21 12 6 6 3 3 6 6 3 3 3 3 5 6 5 6 6 3 5 7 5 3 4 7 9 6 4 3 1 2 1 4 3 2 1 6 5 4 8 6 7 13 12 13 22 28 30 33 35 36 36 34
19 19 15 12 15 17 13 9 8 5 1 3 8 12 13 11 8 5 4 4 4 5 6 7 8 9 11 12 19 15 2 4 9 13 20 22 19 12 6 5 3 2 6 6 1 3 3 4 3 5 6 5 5 3 6 8 7 3 3 4 6 7 6 5 4 3 3 3 3 3 4 4 7 6 6 5 8 13 12 14 19 24 30 33 33 33 33 31
18 19 18 16 16 17 14 11 12 7 3 3 4 10 12 12 10 6 5 1 3 5 5 5 8 10 11 16 22 14 5 8 7 9 21 22 18 10 5 8 7 5 7 7 4 3 3 6 7 7 5 4 5 4 8 11 5 4 3 5 6 6 5 5 5 3 1 4 4 3 5 2 7 7 3 1 5 10 12 14 15 18 23 26 25 25 24 23
17 16 17 18 16 17 16 16 15 9 8 5 3 9 14 15 9 6 4 2 2 3 3 6 8 8 12 17 15 7 7 6 3 9 19 18 16 7 2 9 9 7 6 5 4 2 1 3 7 8 5 6 4 1 6 10 4 4 6 7 6 5 5 5 4 2 3 3 4 6 7 3 6 6 1 1 3 8 11 12 12 16 20 19 17 15 14 14
17 16 15 15 17 20 19 19 18 13 12 8 6 12 18 15 7 5 2 3 2 2 3 6 6 8 14 12 4 1 4 2 4 13 13 10 12 6 5 7 6 5 1 4 2 3 1 1 2 4 4 5 6 5 2 4 7 10 8 6 7 5 4 3 2 4 3 4 4 7 10 5 4 5 3 4 4 6 8 7 9 14 16 14 11 10 9 9
15 17 16 15 18 22 22 23 22 18 15 10 11 20 21 9 3 3 5 1 1 1 4 4 3 8 13 8 2 3 2 2 6 12 8 5 7 5 6 6 3 4 2 5 3 2 2 1 1 3 5 8 9 6 6 6 8 8 4 4 4 3 4 4 3 3 2 5 3 2 5 3 5 7 4 6 7 6 7 6 7 10 14 14 11 9 8 7
15 15 16 17 18 20 23 24 21 19 17 14 18 25 18 3 1 5 5 3 1 3 4 2 1 6 9 5 3 6 3 1 5 7 4 3 5 5 5 5 5 3 2 6 4 3 1 4 2 2 5 8 7 5 5 4 2 4 4 6 4 2 3 3 3 0 2 7 2 2 1 2 8 8 8 12 13 11 10 12 13 14 17 20 18 14 13 12
14 16 16 16 17 17 19 20 18 19 19 19 21 14 6 5 7 10 9 3 1 2 3 3 2 4 7 6 3 4 3 2 5 4 2 3 4 5 4 4 6 3 2 6 2 1 3 5 1 4 3 9 9 6 3 2 2 5 5 6 4 2 2 4 4 1 4 6 2 3 3 3 6 6 11 18 19 18 16 20 24 24 26 29 28 24 21 20
13 16 16 17 17 16 16 17 19 21 20 23 21 7 2 8 9 11 13 8 1 2 3 3 5 4 5 4 3 4 3 2 5 4 2 5 4 5 5 5 6 1 3 4 3 6 5 6 5 6 4 11 13 8 7 6 5 6 4 5 5 5 5 5 3 3 5 4 3 2 2 4 4 3 8 14 18 21 22 26 28 30 34 35 35 33 30 28
12 13 16 18 17 16 16 18 20 22 22 25 17 5 6 8 5 6 9 5 1 2 2 2 6 5 3 2 3 3 3 2 4 4 3 5 5 7 6 8 10 6 5 4 2 4 5 7 6 2 2 13 13 6 7 8 3 3 3 4 4 5 5 1 3 5 3 3 4 2 4 5 5 6 9 9 12 16 19 22 23 28 33 32 34 35 31 30
12 12 14 17 19 19 17 18 20 23 26 24 10 3 9 7 4 4 4 3 4 4 4 3 4 4 4 2 2 4 1 1 4 4 3 3 3 5 6 6 11 11 9 7 3 2 3 5 5 4 1 6 5 3 5 5 4 2 3 4 4 4 6 3 2 1 4 2 4 2 5 6 3 7 10 8 10 10 11 15 18 25 29 25 27 30 26 25
12 12 13 16 19 19 18 19 21 24 26 19 6 6 6 4 5 5 3 4 6 7 7 2 2 4 5 3 3 5 2 1 4 4 3 2 3 6 7 4 6 13 14 9 3 3 5 3 5 2 1 3 1 3 4 3 4 5 4 6 3 2 3 3 2 2 2 4 5 2 6 6 3 6 5 2 7 10 11 12 15 23 24 22 25 27 23 23
13 13 15 17 18 18 19 18 20 26 23 10 4 7 4 4 7 6 4 5 7 8 7 6 5 4 5 5 4 5 5 3 5 5 3 3 4 7 9 5 7 17 21 11 2 3 4 2 5 1 2 3 3 3 2 4 3 5 4 4 4 2 2 2 3 3 2 3 4 4 6 5 5 6 3 3 8 11 13 12 11 16 20 22 27 28 24 21
12 11 12 13 15 18 18 18 23 28 17 4 5 7 4 6 8 7 9 7 5 6 6 6 5 2 4 6 4 4 6 6 7 6 4 4 5 6 12 10 8 14 21 16 6 2 3 3 4 2 2 1 3 2 5 1 2 3 2 2 2 2 4 3 3 4 3 3 3 4 6 5 7 7 6 9 11 11 11 9 8 13 19 24 27 26 21 14
8 6 6 7 10 14 19 21 25 22 9 4 7 5 4 6 7 13 18 10 3 4 5 6 7 5 4 5 3 3 6 6 7 6 4 5 5 4 9 11 4 4 14 17 8 1 3 3 4 2 3 1 2 5 8 9 6 4 3 4 3 1 2 1 1 2 3 3 2 1 5 10 8 6 8 11 11 11 11 9 10 13 18 23 23 21 16 8
7 4 4 7 9 14 23 22 16 11 4 5 7 5 4 6 6 15 22 14 4 3 4 4 7 7 5 4 3 3 5 4 5 6 3 5 7 5 8 15 11 8 7 8 7 5 3 3 4 2 1 4 5 4 5 9 9 8 8 9 9 7 4 3 3 1 2 3 4 3 4 13 8 5 8 10 8 9 10 9 10 14 19 22 19 13 8 4
9 4 3 8 12 20 26 16 6 7 5 7 11 8 5 5 4 11 18 15 9 5 1 2 4 6 5 5 5 5 6 4 5 6 4 7 10 6 8 16 19 18 13 5 6 8 5 3 3 4 5 6 5 2 1 4 5 5 5 5 7 7 6 6 6 4 2 2 2 3 2 13 7 6 6 7 6 8 11 10 11 17 21 19 14 9 7 5
11 8 6 9 14 25 23 7 4 7 5 10 14 7 5 5 4 7 11 12 9 5 3 2 3 5 5 3 5 6 6 6 6 8 7 7 10 9 8 14 18 17 11 2 1 4 4 2 3 4 3 2 3 3 2 1 0 3 4 2 3 5 5 5 4 4 4 3 2 3 3 12 6 4 4 6 5 10 13 13 16 20 21 16 11 9 8 8
8 10 10 8 15 27 20 5 6 9 7 10 10 5 6 7 6 8 7 8 8 4 3 4 3 5 4 2 5 6 8 7 6 10 10 5 5 7 11 18 18 12 8 6 5 9 7 3 5 5 3 3 3 3 2 1 1 3 4 3 5 7 6 3 1 2 2 6 8 6 7 12 6 2 2 5 4 8 13 12 14 17 19 16 10 9 12 11
4 7 13 15 20 23 14 6 6 7 10 11 8 8 10 7 8 15 12 9 10 7 4 5 6 6 4 2 2 4 8 9 7 8 8 6 4 3 11 22 21 14 14 11 8 12 9 4 6 7 6 8 7 6 5 4 2 2 4 6 8 10 10 5 2 3 5 9 9 6 9 14 9 3 3 6 3 5 10 11 11 15 18 17 13 13 16 13
4 4 7 13 20 20 14 12 9 4 7 11 8 8 11 7 7 15 15 10 11 12 7 3 5 6 4 4 4 5 8 10 8 4 4 6 4 0 7 21 24 23 21 12 8 10 4 2 9 12 12 13 13 10 4 7 6 6 9 10 10 10 11 8 3 5 10 10 6 9 16 20 17 9 6 7 5 5 8 9 11 15 20 21 19 17 19 17
6 4 5 6 9 11 12 14 10 4 4 7 5 5 11 12 6 8 13 12 14 16 9 2 5 7 5 7 8 7 8 9 8 6 4 5 3 2 2 11 17 24 22 12 12 10 2 3 10 13 15 16 17 16 7 8 9 13 14 14 12 12 13 12 11 14 14 9 10 17 19 19 22 17 10 8 7 7 8 10 14 19 22 23 21 19 22 22
9 6 9 9 4 3 6 8 8 8 7 5 4 4 9 14 11 8 10 10 14 18 10 4 7 11 11 12 10 8 9 8 8 8 7 6 3 1 0 3 10 18 15 8 10 8 2 6 11 12 16 17 18 18 10 9 11 12 15 17 16 16 16 17 20 23 18 12 14 18 15 14 22 23 15 11 10 10 11 16 21 21 20 20 20 20 24 24
12 7 8 9 4 2 3 2 3 7 9 6 4 4 6 10 13 11 8 5 7 12 12 10 12 15 15 13 9 8 9 9 8 8 8 9 8 4 3 4 6 10 9 5 5 5 3 7 10 11 14 16 19 19 13 13 12 9 10 15 16 18 21 23 25 26 22 17 16 19 18 17 21 21 14 12 17 20 21 22 21 18 17 20 22 23 26 26
14 10 7 6 3 4 4 2 0 2 5 6 5 4 5 6 10 9 6 7 6 7 13 16 16 15 14 13 12 12 12 12 11 10 9 8 8 5 4 5 3 3 6 5 3 4 6 7 8 7 8 12 17 20 17 13 12 10 7 8 13 18 23 26 25 20 16 16 19 21 20 20 21 18 15 15 18 20 20 20 22 24 26 28 29 30 31 30
16 12 9 5 3 4 5 4 3 1 2 4 4 5 6 7 8 6 3 8 11 8 11 17 18 14 12 14 15 15 17 18 16 16 15 14 12 9 7 6 4 4 5 5 3 4 6 6 6 5 7 10 14 20 17 8 6 8 8 9 16 21 21 19 17 14 16 18 20 18 16 19 18 12 11 14 12 13 15 19 25 31 35 35 36 37 36 36
21 16 12 7 3 4 4 2 3 4 5 5 5 6 5 4 4 3 3 5 11 14 13 15 15 12 11 14 19 24 30 30 28 30 26 19 16 12 8 8 7 6 5 4 2 3 5 4 5 6 7 10 14 17 12 4 3 7 12 18 24 22 14 10 11 17 20 18 15 13 15 20 17 7 7 10 8 10 15 22 27 33 36 38 41 41 41 41
Wind_Direction
195 194 195 194 194 196 199 202 203 205 209 212 216 217 215 213 210 206 202 198 195 194 192 193 188 183 186 188 190 188 180 164 154 156 151 146 116 105 104 78 65 50 49 40 50 157 350 49 92 95 100 99 91 97 103 104 116 119 100 98 159 179 195 189 179 185 164 183 193 181 182 175 166 178 178 186 206 218 220 216 216 216 219 224 226 232 242 231
193 192 194 195 197 200 203 205 206 209 213 217 220 221 219 215 211 207 202 200 198 195 194 193 188 186 189 188 191 190 183 172 163 168 160 162 150 126 114 97 81 64 57 51 60 64 86 103 99 103 114 102 83 96 107 87 91 91 100 118 200 196 200 193 179 181 148 81 177 175 181 185 184 179 179 190 213 210 220 226 224 227 228 229 235 240 246 239
193 192 194 197 200 203 207 210 210 213 217 220 222 221 220 216 211 207 203 201 199 198 196 193 190 191 193 190 189 187 184 181 173 178 172 162 157 144 130 115 93 76 67 59 80 94 111 115 99 110 113 99 83 102 102 63 78 74 102 133 235 207 208 199 184 185 171 100 160 170 182 189 191 180 182 199 217 210 222 227 223 230 235 235 237 241 246 243
193 194 197 200 202 205 209 212 214 218 222 223 220 219 218 215 211 207 205 202 201 200 196 192 191 195 197 193 188 182 178 181 181 181 178 169 165 159 148 136 103 76 66 62 80 96 111 119 113 120 108 93 75 98 75 36 91 100 111 163 226 182 159 186 187 198 201 169 162 172 173 188 197 186 190 190 184 239 237 234 233 240 246 243 242 246 249 245
197 198 201 203 204 206 210 212 215 218 220 219 214 214 212 212 210 207 206 205 203 201 196 193 194 199 199 196 189 179 157 133 185 182 180 179 171 170 167 163 128 68 59 58 78 103 117 123 125 118 98 84 55 77 48 37 97 90 59 222 169 139 102 161 181 202 200 181 165 168 167 190 191 192 205 194 195 237 242 246 248 253 255 248 246 249 249 245
201 203 205 207 205 206 210 212 215 215 214 211 207 206 205 206 205 205 207 205 204 201 196 194 197 201 200 201 192 184 162 91 176 176 176 179 175 179 184 195 224 334 360 49 87 115 124 122 127 116 87 71 43 71 69 49 110 99 359 241 152 130 54 110 168 187 186 184 173 172 182 193 183 204 222 213 228 240 243 253 254 258 253 245 244 244 245 245
203 204 204 206 205 206 211 212 212 211 210 206 201 199 197 198 198 200 203 202 201 197 194 197 202 205 205 205 192 192 174 93 155 170 169 171 175 185 195 217 251 299 312 88 111 131 132 121 126 116 92 78 86 95 63 59 93 100 107 198 175 183 9 92 111 157 166 189 186 177 188 196 195 215 237 233 242 246 248 252 250 254 253 246 245 244 248 249
203 203 201 202 202 203 205 207 207 206 205 201 197 194 191 190 189 191 194 194 194 192 194 200 204 206 208 207 198 197 169 118 153 167 165 169 176 185 195 223 267 313 312 162 127 138 136 121 132 123 94 87 130 123 59 75 60 63 141 195 175 178 335 149 128 156 155 179 185 185 196 205 222 232 255 251 252 253 252 254 252 252 252 252 250 251 253 251
201 201 199 199 198 196 193 193 194 196 196 194 193 192 188 184 184 184 186 186 187 190 196 201 207 211 213 212 205 189 168 168 177 177 172 172 176 180 189 221 286 331 19 119 128 141 139 129 144 145 132 131 122 90 61 96 34 45 135 157 148 95 43 152 176 171 179 199 183 207 224 234 246 262 267 259 259 258 254 255 254 254 254 254 255 256 255 255
192 193 196 196 194 191 188 187 189 190 189 191 191 190 186 182 182 181 181 183 183 188 196 201 206 211 217 219 196 173 186 192 187 187 183 178 177 176 185 198 356 30 58 98 112 123 131 127 142 138 130 131 114 74 49 85 123 103 111 119 98 48 23 155 193 193 212 228 221 226 252 283 249 257 261 258 262 259 255 254 253 254 254 254 255 255 254 254
184 186 189 188 187 187 185 186 190 187 187 191 190 190 188 182 182 181 180 182 182 186 192 198 204 211 224 225 192 162 164 188 193 191 185 183 182 175 185 191 125 87 78 100 105 104 115 116 134 137 124 129 116 76 68 91 110 92 100 128 29 8 336 286 237 237 229 237 255 229 276 295 219 166 247 251 257 260 260 257 255 255 255 255 253 252 251 251
182 184 186 185 185 186 185 188 190 188 190 190 190 192 190 187 187 185 183 181 183 185 188 195 203 214 226 242 233 206 164 157 185 193 190 191 185 178 190 189 149 114 93 103 107 104 110 114 130 136 124 141 134 80 92 96 99 77 77 154 332 3 350 301 290 242 217 222 252 154 303 283 210 227 245 252 256 258 260 258 258 257 256 256 253 252 249 249
184 185 189 190 189 190 190 192 193 191 193 194 193 194 195 195 193 192 192 187 188 189 193 201 207 223 233 250 250 231 224 220 206 199 195 196 189 186 194 185 160 134 115 113 115 110 113 111 113 124 125 133 130 115 120 86 87 84 55 81 338 5 340 306 19 207 189 195 170 130 273 270 240 241 244 252 256 255 258 257 258 259 259 258 255 254 251 249
188 192 195 196 199 199 198 199 197 195 194 195 194 193 199 202 201 203 202 200 201 201 206 212 217 230 235 240 245 234 230 226 221 211 201 199 193 190 194 187 164 145 132 121 121 118 109 96 99 115 117 119 123 123 106 38 54 71 26 40 28 11 279 297 31 156 159 197 176 139 258 264 266 260 250 252 253 253 256 257 259 260 260 260 257 257 256 252
197 199 201 203 207 207 209 209 204 200 195 192 189 185 189 195 200 204 206 209 209 212 217 220 226 227 232 242 239 236 231 224 220 214 205 201 197 195 196 189 172 162 151 139 135 128 110 100 105 103 102 115 124 112 39 6 26 32 45 320 353 150 268 307 317 161 149 188 172 151 258 266 272 272 264 252 248 245 252 257 259 258 259 259 260 260 260 258
215 212 210 210 210 210 212 213 211 208 200 195 190 181 180 181 185 188 193 199 200 208 210 215 220 207 219 238 227 230 227 223 218 212 209 204 200 199 198 197 184 172 163 152 142 138 129 107 101 98 105 119 118 91 48 20 351 3 68 231 261 163 279 318 340 191 142 126 181 196 251 272 280 272 261 243 249 244 250 261 261 259 261 260 260 261 262 262
224 226 224 220 215 213 211 213 214 213 209 204 196 187 180 172 172 175 175 176 180 187 185 193 199 199 232 231 219 227 222 218 216 212 209 205 203 200 200 202 186 179 175 160 154 144 135 119 114 103 87 87 91 92 70 346 295 320 20 206 233 202 216 291 316 267 89 93 222 230 241 255 267 269 265 276 283 262 253 263 265 264 265 263 263 263 263 263
215 225 232 230 226 219 211 212 213 214 216 211 205 195 183 174 170 169 166 167 162 153 168 187 163 156 239 221 207 213 214 215 215 211 208 203 201 199 199 199 186 184 172 157 159 138 117 104 110 93 38 37 69 103 133 222 205 194 173 156 254 239 219 254 276 235 116 57 244 236 258 261 266 271 270 273 275 265 260 265 267 267 266 265 264 263 263 262
213 220 229 235 237 231 220 215 213 214 216 214 212 200 186 173 167 177 179 173 163 144 160 193 176 140 193 204 205 207 204 203 206 207 205 201 198 196 193 189 182 174 155 155 158 115 117 90 85 113 181 194 187 162 180 197 159 154 167 147 165 211 251 239 246 256 184 156 249 235 246 263 267 270 271 274 270 260 263 266 266 266 266 265 264 263 263 262
232 228 231 236 240 241 236 226 219 217 216 218 215 201 185 161 139 203 205 196 196 193 184 183 189 190 122 151 194 204 204 198 201 200 198 198 194 189 181 170 164 153 137 160 171 105 107 105 157 212 208 193 195 178 152 142 120 117 124 118 156 199 268 246 248 290 188 180 257 238 238 264 268 268 270 272 270 257 258 261 262 264 265 265 265 265 264 264
248 253 250 249 245 248 246 239 233 225 219 222 215 199 190 181 158 74 205 213 225 221 227 209 200 213 222 212 190 192 195 193 197 196 194 194 187 183 179 163 142 142 217 125 122 84 94 142 226 227 193 174 178 142 114 104 89 92 121 135 219 215 258 250 233 306 210 180 266 273 263 266 265 269 272 269 258 248 251 253 258 261 264 265 265 266 266 266
237 259 267 267 260 259 255 247 244 238 229 224 215 203 207 212 207 220 229 267 259 239 237 236 227 228 234 238 230 209 192 182 193 196 192 186 183 186 179 157 134 160 199 106 103 47 74 219 242 206 131 111 97 111 117 111 94 82 115 134 253 241 273 283 295 328 6 186 264 309 286 266 265 271 272 265 252 253 256 253 257 261 262 265 266 267 268 268
222 240 261 272 274 271 266 256 248 248 241 228 217 208 216 225 217 235 288 312 280 260 246 242 239 235 233 235 238 226 205 195 198 195 192 188 185 186 173 151 126 138 162 176 160 139 166 249 251 172 138 109 74 96 108 104 110 118 135 149 235 245 274 283 292 318 295 205 274 312 295 273 266 266 267 264 255 259 263 259 259 260 260 263 265 266 267 269
214 219 238 262 274 274 270 263 256 254 243 233 222 215 221 225 219 243 276 327 296 267 247 243 240 238 236 233 234 226 215 217 216 198 195 190 179 175 176 158 124 133 184 195 172 175 221 252 207 133 140 124 108 122 127 134 211 246 187 184 209 221 217 234 289 320 319 333 348 312 301 286 262 252 257 269 270 264 266 263 260 259 259 262 264 265 265 266
209 215 227 241 260 271 269 267 268 256 238 226 214 212 216 215 212 236 228 16 308 276 252 238 233 239 234 228 225 215 213 226 227 211 200 194 182 166 163 161 146 174 195 164 147 222 253 229 134 106 100 119 123 152 173 161 191 280 231 205 211 215 213 227 349 3 352 329 330 10 294 283 288 258 251 281 321 274 268 265 262 260 260 261 263 266 267 267
208 210 221 237 248 254 258 264 266 257 231 206 204 204 207 204 192 197 139 54 306 250 211 210 213 224 218 213 203 190 215 243 223 212 199 195 193 173 144 147 136 188 176 144 148 232 241 189 136 120 124 130 127 175 216 170 144 279 255 210 209 194 173 190 106 43 290 272 267 107 217 278 294 259 252 276 283 273 275 271 265 262 261 260 261 265 268 269
215 211 215 233 244 243 246 253 258 262 168 186 199 193 195 188 170 167 121 33 291 199 157 179 181 189 196 188 180 176 208 199 183 198 191 189 195 187 173 162 106 170 162 131 214 248 166 158 121 121 124 128 144 198 220 164 140 239 257 162 164 160 175 187 153 176 238 275 275 148 141 280 287 254 249 271 273 278 283 274 269 263 260 261 263 265 268 270
227 223 219 224 239 248 249 253 258 260 238 226 182 178 179 167 156 136 106 15 263 147 142 171 165 177 180 172 176 171 136 141 142 187 185 182 191 188 192 191 165 177 171 149 214 259 151 177 189 163 144 168 188 214 191 158 146 249 209 118 131 147 157 136 124 176 302 349 297 201 142 242 277 268 265 265 263 274 274 268 269 268 267 270 271 269 270 270
236 235 226 219 229 244 246 249 251 248 242 236 151 167 163 152 145 98 84 214 194 116 137 159 155 167 158 161 179 168 123 132 108 171 176 178 187 179 173 194 171 160 181 179 211 245 101 189 193 162 157 198 200 271 184 169 171 186 137 96 83 83 81 89 110 120 63 331 264 186 162 203 274 270 210 159 256 257 260 264 269 273 275 278 279 274 266 261
236 239 234 221 224 232 236 242 242 242 238 220 178 167 156 148 132 85 112 224 181 95 122 153 167 164 148 145 186 210 110 89 109 143 158 172 181 161 113 156 145 121 166 320 271 227 21 73 163 163 170 167 127 65 54 133 138 137 118 77 61 45 42 60 54 77 79 286 266 185 186 187 274 271 206 202 228 220 231 256 271 276 278 277 274 268 261 255
234 237 237 229 226 228 230 233 235 235 231 213 178 163 153 141 86 145 200 233 57 135 128 153 174 149 149 144 169 195 104 42 141 145 148 159 166 147 117 134 113 79 4 307 285 297 343 84 202 190 153 123 101 67 39 70 117 120 94 88 81 357 8 29 349 45 133 247 275 211 211 187 239 254 241 246 259 234 215 233 254 266 275 275 266 255 257 264
232 232 235 234 233 233 231 233 237 234 224 199 173 162 155 143 339 213 214 72 64 206 152 164 194 148 160 149 158 175 132 93 174 160 149 146 162 176 174 179 163 107 286 240 248 337 260 229 236 148 159 150 118 75 45 24 57 95 98 113 101 328 348 345 285 135 221 246 238 140 183 238 244 251 259 263 266 251 224 227 241 249 261 269 268 261 258 264
228 228 232 230 233 236 234 235 236 232 222 193 173 155 137 187 203 215 212 165 190 227 114 105 90 124 154 155 176 169 123 165 185 169 140 135 168 212 245 233 182 163 208 193 196 281 268 293 218 140 200 189 164 142 151 219 195 160 147 142 140 149 197 252 258 265 267 264 243 164 170 245 269 263 244 243 249 249 242 245 252 257 261 267 270 268 266 267
227 229 230 226 230 231 234 235 227 231 225 189 169 138 114 203 205 208 210 207 207 36 58 93 98 105 150 168 214 177 140 212 178 148 131 133 159 218 245 246 218 175 100 146 173 183 218 280 206 174 192 184 184 190 166 142 156 183 158 138 161 169 179 215 218 214 253 281 283 235 191 203 222 259 242 241 255 260 257 256 258 262 264 266 268 268 267 267
234 232 228 227 225 219 227 233 229 234 216 177 156 148 183 202 219 207 209 208 155 59 32 65 100 119 187 259 285 202 175 217 169 135 161 169 183 204 198 207 203 173 136 178 222 164 204 261 241 234 158 167 181 190 131 113 138 207 119 120 197 194 156 163 202 180 183 313 302 247 228 215 211 273 269 255 265 266 262 262 262 261 260 262 264 263 263 267
243 238 231 229 223 216 218 224 233 233 200 164 138 198 194 207 210 177 188 168 156 134 104 69 82 121 194 231 263 232 215 122 147 146 200 208 233 214 202 217 201 183 176 185 196 139 175 269 293 351 45 170 182 175 135 141 179 163 142 178 214 174 121 110 235 113 87 258 275 232 251 278 312 283 264 247 260 271 272 269 260 254 255 258 260 261 265 269
244 243 241 231 223 219 212 214 227 218 186 159 155 198 189 230 204 171 184 156 143 142 138 174 191 159 186 201 204 209 209 87 152 178 201 199 263 216 207 253 201 192 203 197 205 200 168 255 305 41 181 260 327 95 80 53 122 129 184 201 172 114 100 109 205 353 43 246 271 261 251 279 300 278 288 275 259 264 262 258 255 257 258 258 259 262 268 271
244 251 252 239 229 221 207 209 217 200 179 162 205 202 185 221 204 179 166 148 144 159 181 218 206 162 177 193 201 188 182 185 175 186 190 187 249 207 182 214 202 200 210 200 215 250 160 239 299 43 191 276 15 109 101 10 73 129 185 182 127 157 199 123 165 199 222 243 275 290 283 270 224 235 270 225 228 241 248 251 256 259 257 257 259 259 263 269
244 256 263 248 234 221 204 205 204 190 178 171 212 209 201 203 208 192 176 169 157 163 192 219 205 173 176 176 170 164 183 191 171 175 186 185 237 205 177 195 207 202 201 187 191 248 149 200 274 325 255 294 38 168 191 201 36 60 87 133 120 171 182 167 158 174 197 219 257 303 318 276 225 202 200 214 219 223 235 246 246 249 252 252 252 254 259 266
239 246 264 236 224 215 198 194 192 184 180 216 207 205 186 182 198 202 198 193 163 164 197 212 198 198 196 173 157 167 190 194 169 182 208 189 217 236 191 187 172 175 186 182 193 226 112 204 241 313 323 188 177 214 195 178 167 156 169 179 192 174 128 175 171 128 148 167 202 280 299 273 250 178 185 215 224 219 220 230 235 239 247 248 244 249 257 253
216 223 247 203 198 194 185 184 185 184 204 221 212 219 188 163 171 202 210 213 216 207 196 195 200 200 186 172 185 174 169 180 179 192 231 208 212 244 204 187 164 130 141 170 203 205 168 196 192 179 233 200 214 242 200 190 186 183 190 195 196 182 149 182 226 209 126 145 180 175 262 273 259 159 190 214 214 218 218 229 246 235 232 243 247 242 236 212
204 222 217 185 195 187 177 177 189 193 206 215 219 218 167 136 144 196 210 216 230 250 219 184 206 202 186 180 194 173 157 177 189 192 228 224 216 223 204 189 172 154 145 162 209 194 164 131 153 197 217 213 232 285 187 226 225 209 210 204 197 188 170 180 203 211 170 162 178 115 242 269 253 150 191 219 213 234 225 214 240 244 235 240 247 228 202 196
210 218 185 168 197 192 180 180 215 196 221 228 222 209 148 155 166 177 196 206 212 220 212 211 197 200 211 189 169 170 178 191 193 199 220 234 227 225 197 181 172 158 152 167 236 162 139 134 198 229 263 290 307 335 23 35 82 234 242 180 160 194 185 171 181 183 166 178 179 115 234 261 263 130 201 239 250 265 251 215 216 238 245 243 239 226 212 204
218 225 214 199 203 196 186 186 201 199 228 231 223 208 193 204 188 171 182 194 194 186 197 219 216 209 219 174 159 182 193 199 205 208 214 232 235 217 189 181 177 170 181 194 175 165 166 190 204 219 280 315 318 311 278 252 139 225 236 187 189 194 160 119 141 160 182 209 192 178 236 253 276 25 231 235 241 264 264 239 218 230 243 245 242 238 228 213
213 229 228 225 220 212 210 225 213 205 216 221 226 215 211 220 197 194 197 188 188 189 193 218 215 200 191 164 179 196 196 207 223 213 211 234 248 194 188 189 182 187 210 211 179 168 173 191 185 194 231 233 231 238 223 196 158 217 229 200 202 192 169 172 188 161 219 226 195 187 241 251 267 315 247 234 240 260 258 249 237 236 241 248 248 236 231 223
192 213 215 221 231 239 247 248 243 233 215 217 225 216 216 233 213 200 200 193 192 198 206 222 197 185 178 182 206 223 216 224 234 213 198 226 239 32 194 193 189 200 212 210 177 165 160 229 196 197 214 221 234 242 196 126 142 203 218 201 196 196 186 185 183 194 220 229 215 215 233 247 258 253 229 232 233 247 256 251 243 239 239 246 248 238 241 243
200 212 193 193 227 243 248 246 238 225 221 214 206 206 214 224 233 202 197 197 195 198 214 254 184 181 183 189 210 228 221 227 238 231 222 223 238 332 202 188 198 211 213 201 179 165 108 243 212 214 220 222 239 242 199 142 177 203 208 201 194 194 187 186 208 222 219 220 237 232 226 243 258 249 226 227 230 234 253 255 246 239 234 241 248 244 249 253
207 224 210 196 192 217 232 239 223 222 246 243 224 237 221 217 222 210 196 200 200 195 201 228 206 205 203 195 205 225 219 224 233 228 230 231 231 310 236 186 216 219 212 197 186 171 158 227 214 219 225 227 240 242 208 177 202 205 200 201 195 188 188 196 215 225 219 212 236 244 231 232 252 254 238 224 226 225 232 238 241 242 238 245 252 247 249 254
211 229 215 202 208 221 207 196 186 213 234 238 238 260 241 223 224 215 185 182 208 199 198 213 217 215 214 206 203 213 212 216 225 221 224 230 222 208 218 233 231 216 195 184 205 176 159 229 225 220 228 232 239 242 221 199 216 224 207 202 194 189 194 204 216 223 223 223 237 252 252 242 247 254 248 230 228 230 234 237 241 251 256 256 254 246 245 251
210 218 212 195 219 255 247 244 182 205 224 220 219 230 229 237 246 239 195 182 199 190 193 213 225 218 213 214 215 221 220 215 223 222 212 222 225 203 213 230 210 188 181 181 218 179 164 219 230 213 233 241 240 246 238 212 215 229 223 206 203 202 204 210 218 221 222 230 237 243 254 257 253 253 255 247 232 225 232 238 242 250 254 254 252 244 242 248
213 208 203 190 209 235 236 233 208 198 232 203 202 222 219 221 237 251 245 219 222 214 196 208 223 223 216 217 217 225 229 224 229 233 222 222 227 214 213 214 169 154 196 194 190 166 172 218 227 204 232 240 237 246 245 216 199 231 234 215 212 214 213 213 215 215 212 219 230 236 245 254 255 251 252 247 220 205 220 225 231 241 243 245 246 244 244 249
217 210 204 198 213 219 212 210 178 195 237 224 204 224 231 227 227 236 280 242 226 232 228 218 221 223 220 222 221 225 230 230 233 239 237 236 238 232 221 211 184 162 175 184 182 164 168 204 219 213 232 239 238 243 241 176 159 232 233 224 220 218 216 217 223 225 219 212 217 227 233 246 254 249 240 239 199 191 216 216 222 235 239 240 243 243 246 251